Flag for Dominican Republic Weather past 2 weeks in Santiago de los Caballeros, Dominican Republic

84 °F

Partly sunny.

Feels Like: 90 °F
Forecast: N/A
Wind: 9 mph from Southeast

Location: Santiago

Current Time: Oct 9, 2015 at 6:26:10 PM

Latest Report: Oct 9, 2015 at 5:00 PM

Visibility: N/A

Pressure: 29.92 "Hg

Humidity: 66%

Dew point: 72 °F

Location of Santiago de los CaballerosLocation

Historic Weather in Santiago de los Caballeros — Graph


Santiago de los Caballeros temperature yesterday

Maximum temperature yesterday: 95 °F (at 2:00 PM)
Minimum temperature yesterday: 77 °F (at 3:00 AM)
Average temperature yesterday: 85 °F

Past Weeks' High & Low Weather Summary

High99 °F (Oct 3, 3:00 PM)100% (Sep 24, 8:00 PM)30.01 "Hg (Sep 24, 8:00 PM)
Low70 °F (Sep 26, 7:00 AM)25% (Oct 3, 3:00 PM)27.24 "Hg (Oct 4, 9:00 PM)
Average81 °F75%29.84 "Hg
* Reported Sep 24 5:00 PM — Oct 9 5:00 PM, Santiago de los Caballeros, Weather by CustomWeather, © 2015

Note: Actual official high and low records may vary slightly from our data, if they occured in-between our weather recording intervals... More about our weather records


Santiago de los Caballeros weather history for previous 24 hours

Time TempWeatherWind HumidityBarometerVisibility
5:00 PM
Fri, Oct 9
84 °FPartly sunny.9 mph66%29.92 "HgN/A
3:00 PM86 °FPartly sunny.16 mph59%29.92 "HgN/A
2:00 PM91 °FPassing clouds.12 mph52%29.92 "HgN/A
1:00 PM90 °FBroken clouds.13 mph59%29.95 "HgN/A
12:00 PM88 °FScattered clouds.13 mph59%29.98 "HgN/A
11:00 AM88 °FScattered clouds.9 mph62%30.01 "HgN/A
10:00 AM84 °FScattered clouds.10 mph70%30.01 "HgN/A
9:00 AM82 °FPassing clouds.7 mph74%30.01 "HgN/A
8:00 AM77 °FScattered clouds.No wind89%29.98 "HgN/A
7:00 AM75 °FScattered clouds.5 mph94%29.98 "HgN/A
6:00 AM75 °FPassing clouds.5 mph94%29.95 "HgN/A
5:00 AM75 °FPassing clouds.5 mph94%29.95 "HgN/A
4:00 AM77 °FPassing clouds.7 mph89%29.95 "HgN/A
3:00 AM77 °FThunderstorms. Passing clouds.5 mph94%29.95 "HgN/A
2:00 AM79 °FThunderstorms. Passing clouds.5 mph89%29.98 "HgN/A
1:00 AM79 °FThunderstorms. Passing clouds.7 mph89%29.98 "HgN/A
12:00 AM81 °FPassing clouds.6 mph89%30.01 "HgN/A
11:00 PM
Thu, Oct 8
82 °FWarm.6 mph84%30.01 "HgN/A
10:00 PM82 °FThunderstorms. Partly cloudy.7 mph79%29.98 "HgN/A
9:00 PM81 °FThunderstorms. Passing clouds.7 mph79%29.98 "HgN/A
8:00 PM84 °FPassing clouds.14 mph74%29.95 "HgN/A
7:00 PM86 °FPassing clouds.12 mph66%29.92 "HgN/A
6:00 PM90 °FPassing clouds.10 mph59%29.89 "HgN/A
Weather by CustomWeather, © 2015

See weather overviewHow to use our weather pages